Location: Newark
(51.3318°N, 0.0053°E)
Time: 23:51:02
(UTC+00:00)

Envisat - Pass Details

Date: 24 January 2022
Orbit: 764 x 765 km, 98.2° (Epoch: 22 May)

Event Time Altitude Azimuth Distance (km) Brightness Sun altitude
Rises 05:29:33 0° 12° (NNE) 3,244 6.3 -21.4°
Reaches altitude 10° 05:31:53 10° 9° (N) 2,313 5.5 -21.1°
Maximum altitude 05:36:54 62° 290° (WNW) 860 2.9 -20.3°
Drops below altitude 10° 05:41:54 10° 210° (SSW) 2,298 5.2 -19.5°
Sets 05:44:13 0° 207° (SSW) 3,220 6.0 -19.2°
